OpenBCM V1.08-3-g9b42 (Linux)

Packet Radio Mailbox

OK0NBR

[Sao_Jose_dos_Campo]

 Login: GUEST





  
I0OJJ  > KEPS     28.12.25 00:33l 322 Lines 15316 Bytes #300 (0) @ AMSAT
BID : ORB25362.1
Read: GUEST
Subj: 2Line Orbital Elements 25362.AMSAT
Path: OK0NBR<SR1BSZ<EA2RCF<I0OJJ
Sent: 251228/0021z @:I0OJJ.ITA.EU [Rome] obcm1.08-11-2-gbfe9
From: I0OJJ @ I0OJJ.ITA.EU (Gustavo)
To:   KEPS @ AMSAT
X-Info: This message was generated automatically


QST de W1STR

AMSAT Orbital Elements for Amateur Satellites in TLE Format
From Orbital Analysis Office
New England Sci-Tech STEM Education Center
Natick MA December 28, 2025
To all radio amateurs


These element sets describe the orbits of various satellites 
in use by the amateur radio community. For details see:
www.amsat.org/keplerian-elements-formats/

A daily update of element sets is available at:
www.amsat.org/tle/daily-bulletin.txt
or without bulletin text:
www.amsat.org/tle/dailytle.txt


AO-07
1 07530U 74089B   25361.58884139 -.00000032  00000-0  91650-4 0  9997
2 07530 101.9966   8.0123 0012409  98.7289  13.4795 12.53694506339018
UO-11
1 14781U 84021B   25361.83451669  .00001995  00000-0  21151-3 0  9992
2 14781  97.7833 324.6304 0008733  39.9596 320.2263 14.90194210231605
AO-27
1 22825U 93061C   25361.12386510  .00000151  00000-0  74755-4 0  9990
2 22825  98.7126  63.4240 0007461 241.5988 118.4442 14.30882107682394
FO-29
1 24278U 96046B   25361.63440793  .00000007  00000-0  42554-4 0  9992
2 24278  98.5453 228.7695 0349843 181.3053 178.7207 13.53263432449966
GO-32
1 25397U 98043D   25361.87978287  .00000127  00000-0  74893-4 0  9998
2 25397  98.9935 345.4423 0001556  31.8772 328.2500 14.24381384426944
ISS
1 25544U 98067A   25361.56640462  .00014449  00000-0  26180-3 0  9992
2 25544  51.6320  69.0472 0003237 310.8255  49.2453 15.49876615545155
NO-44
1 26931U 01043C   25361.33487741  .00000277  00000-0  13431-3 0  9994
2 26931  67.0517 328.7337 0007386 269.0901  90.9354 14.31863371265845
SO-50
1 27607U 02058C   25361.30953485  .00002413  00000-0  30473-3 0  9991
2 27607  64.5543 300.5653 0072847 293.8763  65.4721 14.82454296238978
CO-55
1 27844U 03031E   25361.76514376  .00000444  00000-0  21180-3 0  9995
2 27844  98.6764   7.4742 0008996 329.1040  30.9609 14.24192333167274
CO-57
1 27848U 03031J   25361.52809900  .00000378  00000-0  18566-3 0  9993
2 27848  98.6793   7.0906 0009222 348.7406  11.3564 14.23498239166954
RS-22
1 27939U 03042A   25361.87140671  .00001667  00000-0  26751-3 0  9994
2 27939  98.3372 176.4744 0012477  91.2861  38.7588 14.73012420190323
CO-58
1 28895U 05043F   25361.39698167  .00002125  00000-0  34663-3 0  9995
2 28895  98.2734 148.7241 0014830  34.4490 325.7675 14.71955345 76477
CO-65
1 32785U 08021C   25351.68477250  .00005656  00000-0  38073-3 0  9997
2 32785  97.8081 324.8433 0007829 290.5969  69.4418 15.07103756957832
CO-66
1 32791U 08021J   25361.46544057  .00019961  00000-0  78353-3 0  9990
2 32791  97.7457 347.1235 0003234 151.8065 208.3348 15.25757920961047
RS-30
1 32953U 08025A   25361.84053756  .00000082  00000-0  51757-3 0  9990
2 32953  82.5029 102.0318 0018497 327.3266  32.6668 12.43172653798406
SRMSAT
1 37841U 11058D   25361.74553712  .00000466  00000-0  10920-3 0  9990
2 37841  19.9733  17.1359 0011967 117.3309  53.3612 14.11516705733566
ZACUBE-1
1 39417U 13066B   25351.39749824  .00003280  00000-0  27002-3 0  9999
2 39417  97.8056 307.9496 0042001 132.1904 228.2897 14.99124350653477
Delfi-N3xt
1 39428U 13066N   25361.76464959  .00011113  00000-0  10327-2 0  9991
2 39428  97.8342 277.5779 0080571  56.6380 304.2516 14.92059801649036
GOMX-1
1 39430U 13066Q   25361.82259642  .00004370  00000-0  66959-3 0  9992
2 39430  97.6583 208.0061 0128939 267.8179  90.8259 14.68667183644757
LO-74
1 39440U 13066AA  25351.56788106  .00003439  00000-0  33426-3 0  9993
2 39440  97.8708 295.2332 0058016 269.4523  90.0047 14.92015584649893
AO-73
1 39444U 13066AE  25361.80315442  .00011617  00000-0  78167-3 0  9992
2 39444  97.8077 325.2704 0040528  66.9505 293.5987 15.06211327653833
DTUSAT-2
1 40030U 14033W   25351.70002679  .00007073  00000-0  41774-3 0  9998
2 40030  98.0754 333.4459 0009697 125.2587 234.9550 15.11812878625232
EO-80
1 40032U 14033Y   25361.50502241  .00010912  00000-0  63732-3 0  9993
2 40032  98.0659 343.1787 0009358  47.7709 312.4313 15.12070729626690
LILACSAT-2
1 40908U 15049K   25361.82748010  .00017981  00000-0  38003-3 0  9990
2 40908  97.4904  27.6769 0008852 143.9799 216.2048 15.45185590569239
IO-86
1 40931U 15052B   25151.18580175  .00001241  00000-0  78118-4 0  9996
2 40931   6.0006  24.0987 0012733 338.8432  21.1169 14.78805930523159
Horyu-4
1 41340U 16012D   25361.86744066  .00061121  00000-0  96979-3 0  9994
2 41340  30.9924 206.0055 0006426  20.1051 339.9851 15.52035966543907
Lapan A3
1 41603U 16040E   25361.85207047  .00005110  00000-0  16931-3 0  9995
2 41603  97.1438 358.8599 0008642 270.3402  89.6850 15.31680462528572
CAS-2T
1 41847U 16066G   25361.79615231  .00001392  00000-0  20676-3 0  9993
2 41847  98.4019  74.3900 0342475 289.4112  67.0366 14.44168217480055
TechnoSat
1 42829U 17042E   25360.90460374  .00004535  00000-0  33568-3 0  9993
2 42829  97.4061 160.5029 0017015 327.7810  32.2375 15.03523588460809
AO-91
1 43017U 17073E   25361.16694947  .00012247  00000-0  57408-3 0  9999
2 43017  97.4942 227.0378 0159442 200.4993 158.9792 15.09169944439413
S-Net D
1 43186U 18014G   25361.68647038  .00008184  00000-0  44727-3 0  9993
2 43186  97.5483 262.6561 0006876 250.0171 110.0320 15.14538148432782
S-Net B
1 43187U 18014H   25361.69476661  .00007607  00000-0  41628-3 0  9993
2 43187  97.5487 262.6453 0007567 244.5652 115.4797 15.14513045432783
S-Net A
1 43188U 18014J   25361.68611602  .00008267  00000-0  45161-3 0  9998
2 43188  97.5495 262.8157 0007454 245.5767 114.4687 15.14544778432783
S-Net C
1 43189U 18014K   25361.69778046  .00007497  00000-0  41027-3 0  9997
2 43189  97.5512 262.8750 0008948 236.9906 123.0466 15.14508291431332
Ten-Koh
1 43677U 18084G   25361.50240715  .00003419  00000-0  26638-3 0  9994
2 43677  98.0756 181.7222 0008210 344.1822  15.9143 15.01909925390389
PO-101
1 43678U 18084H   25361.80001237  .00005475  00000-0  45057-3 0  9992
2 43678  98.1052 185.8716 0007397   8.3224 351.8119 14.99527671390524
QO-100
1 43700U 18090A   25361.47534116  .00000000  00000-0  00000+0 0  9999
2 43700   0.0221  14.7716 0001347 283.5387 354.7869  1.00269484 25955
MinXSS-2
1 43758U 18099A   25361.16311076  .00032738  00000-0  95402-3 0  9992
2 43758  97.4773  68.7284 0009826 159.7450 200.4185 15.35268861387639
AO-95
1 43770U 18099N   25361.71653404  .00015089  00000-0  65792-3 0  9990
2 43770  97.4653  57.8891 0008539 225.5719 134.4819 15.22237511387097
SNUSat 2
1 43782U 18099AA  25361.09108725  .00011798  00000-0  57335-3 0  9992
2 43782  97.4337  52.2523 0011192 170.5276 189.6171 15.18532771386886
SnugLite
1 43784U 18099AC  25361.63408954  .00015649  00000-0  67477-3 0  9998
2 43784  97.4141  52.8859 0003500 151.7402 208.4025 15.22634357387174
ITASat 1
1 43786U 18099AE  25361.61332851  .00009483  00000-0  49185-3 0  9995
2 43786  97.4307  51.6148 0012234 225.8674 134.1554 15.16299397386889
EAGLET 1
1 43790U 18099AJ  25361.66948279  .00005760  00000-0  34571-3 0  9999
2 43790  97.4503  50.8223 0010576 211.3737 148.6863 15.11261652386414
ESEO
1 43792U 18099AL  25361.85575988  .00002725  00000-0  20359-3 0  9992
2 43792  97.4235  41.4215 0011973 190.8834 169.2135 15.03555925386057
JO-97
1 43803U 18099AX  25361.10055504  .00019946  00000-0  74684-3 0  9993
2 43803  97.4399  58.8721 0006849 151.1302 209.0317 15.27304092387308
Suomi 100
1 43804U 18099AY  25361.63082007  .00016568  00000-0  69105-3 0  9999
2 43804  97.4464  57.9767 0011384 159.1723 200.9980 15.23696412387253
ISAT
1 43879U 18111D   25361.85332015  .00047522  00000-0  10755-2 0  9997
2 43879  97.5911 282.1697 0005443 174.6761 185.4544 15.42977123384577
UWE-4
1 43880U 18111E   25361.30320465  .00027040  00000-0  79310-3 0  9991
2 43880  97.5857 278.2394 0007927 209.8308 150.2484 15.35123463384312
Sparrow
1 43881U 18111F   25361.36170475  .00048874  00000-0  10212-2 0  9995
2 43881  97.6094 285.5030 0002184 212.5375 147.5739 15.45352009384627
Prox-1
1 44339U 19036A   25361.82305041  .00017972  00000-0  19951-2 0  9995
2 44339  23.9944 174.8395 0006021 214.1050 145.9062 14.85587369347912
Taurus 1
1 44530U 19059C   25361.88979330  .00010970  00000-0  18600-2 0  9998
2 44530  98.6231 151.5809 0009126 128.7196 231.4825 14.69396274333463
TO-108
1 44881U 19093C   25361.84989992  .00001277  00000-0  15158-3 0  9992
2 44881  97.7738  73.1424 0012339 293.9235  66.0688 14.86138995325963
FloripaSat 1
1 44885U 19093G   25361.83949561  .00008459  00000-0  65841-3 0  9996
2 44885  97.8014  90.1046 0009303 281.7741  78.2439 15.01467184326916
RS-44
1 44909U 19096E   25361.79042976  .00000021  00000-0  39687-4 0  9992
2 44909  82.5217  93.6086 0217618 184.8668 175.0320 12.79746307280421
SALSAT
1 46495U 20068K   25361.87113034  .00010727  00000-0  41213-3 0  9999
2 46495  97.8800 349.9627 0010332 172.2156 187.9243 15.26586717289196
CSS (TIANHE-1)
1 48274U 21035A   25361.82817788  .00019655  00000-0  24146-3 0  9998
2 48274  41.4675 285.0647 0008846 162.3224 197.7924 15.59773479266383
CUTE
1 49263U 21088D   25361.79407264  .00034147  00000-0  43003-3 0  9991
2 49263  97.4330  85.3248 0004852 204.0297 156.0734 15.59555074235647
TeikyoSat 4
1 49396U 21102B   25361.52531731  .00002482  00000-0  16190-3 0  9997
2 49396  97.3882  32.5684 0012762 156.9382 203.2423 15.08708981226834
Z-Sat
1 49399U 21102E   25361.88734444  .00004492  00000-0  23245-3 0  9997
2 49399  97.3569  37.3739 0018661 121.4591 238.8470 15.16578691227464
KOSEN 1
1 49402U 21102H   25361.08510930  .00009788  00000-0  40721-3 0  9997
2 49402  97.3455  41.6765 0016264  95.0464 265.2630 15.23845681227783
HO-113
1 50466U 21131B   25361.85539957  .00000735  00000-0  24193-3 0  9994
2 50466  98.5039  90.2001 0003142 246.8494 113.2364 14.41132775210431
